This is the latest recevied weather packets stored in our database for station/object OE3TEC-15. If no packets are shown the sender has not sent any weather packets the latest 10 day(s).
| Time | Temp. | Humidity | Pressure | Rain* | Wind** | Luminosity | Snow |
|---|---|---|---|---|---|---|---|
| 1777632874 | 18.89° C | 35% | 1029.2 hPa | 0 mm | - | 271 W/m² | - |
| 1777632267 | 18.33° C | 36% | 1029.2 hPa | 0 mm | - | 759 W/m² | - |
| 1777631660 | 17.78° C | 36% | 1029.5 hPa | 0 mm | - | 225 W/m² | - |
| 1777631053 | 18.89° C | 34% | 1029.6 hPa | 0 mm | - | 793 W/m² | - |
| 1777630452 | 19.44° C | 34% | 1029.5 hPa | 0 mm | - | 729 W/m² | - |
| 1777629846 | 18.33° C | 36% | 1029.7 hPa | 0 mm | - | 762 W/m² | - |
| 1777629239 | 17.78° C | 37% | 1029.7 hPa | 0 mm | - | 686 W/m² | - |
| 1777628631 | 17.78° C | 37% | 1029.8 hPa | 0 mm | - | 652 W/m² | - |
| 1777628024 | 17.78° C | 38% | 1029.9 hPa | 0 mm | - | 654 W/m² | - |
| 1777627419 | 17.78° C | 37% | 1030.1 hPa | 0 mm | - | 678 W/m² | - |
| 1777626809 | 17.22° C | 36% | 1030 hPa | 0 mm | - | 671 W/m² | - |
| 1777626203 | 17.22° C | 37% | 1030.2 hPa | 0 mm | - | 632 W/m² | - |
| 1777625596 | 17.22° C | 37% | 1030.3 hPa | 0 mm | - | 646 W/m² | - |
| 1777624988 | 16.11° C | 39% | 1030 hPa | 0 mm | - | 576 W/m² | - |
| 1777624382 | 15.56° C | 37% | 1030.3 hPa | 0 mm | - | 559 W/m² | - |
| 1777623773 | 15.56° C | 38% | 1030.4 hPa | 0 mm | - | 541 W/m² | - |
| 1777623166 | 15.56° C | 39% | 1030.4 hPa | 0 mm | - | 519 W/m² | - |
| 1777622558 | 15° C | 39% | 1030.4 hPa | 0 mm | - | 496 W/m² | - |
| 1777621951 | 15.56° C | 39% | 1030.4 hPa | 0 mm | - | 479 W/m² | - |
| 1777621345 | 15.56° C | 40% | 1030.4 hPa | 0 mm | - | 467 W/m² | - |
| 1777620739 | 15° C | 41% | 1030.6 hPa | 0 mm | - | 433 W/m² | - |
| 1777620130 | 13.89° C | 43% | 1030.6 hPa | 0 mm | - | 306 W/m² | - |
| 1777619523 | 13.33° C | 44% | 1030.6 hPa | 0 mm | - | 357 W/m² | - |
| 1777618917 | 13.89° C | 43% | 1030.3 hPa | 0 mm | - | 229 W/m² | - |
| 1777618309 | 12.78° C | 44% | 1030.4 hPa | 0 mm | - | 203 W/m² | - |
* Rain latest hour (hover to see other rain measurements)
** Current wind speed in m/s (hover to see current wind gust speed)